^^
Your Local Weather - Clay, NY Station Historical Data
Daily Summary for February 19, 2017 Units:  English    Metric   Both
« Previous Day
Next Day »
Daily Weekly Monthly Yearly Custom
  High: Low: Average:
Temperature: 53.2 °F 36.7 °F 44.9 °F
Dew Point: 36.7 °F 30.3 °F 34.2 °F
Humidity: 81% 48% 67%
Wind Speed: 7.0mph 0.0mph 2.3mph
Wind Gust: 13.0mph - -
Wind- - WNW
Pressure: 30.04 in 29.64 in -
Precipitation: 0.00 in    
Historical Graphs
 
 
Tabular Data for February 19, 2017
Time Temperature Dew Point Pressure Wind Wind Speed Wind Gust Humidity Rainfall Rate (Hourly) solar
00:02 46.8 °F 36.4 °F 29.64 in WNW 1.0 mph 1.0 mph 67% 0.00 in 0 W/m2
00:08 46.7 °F 36.3 °F 29.64 in West 1.0 mph 5.0 mph 67% 0.00 in 0 W/m2
00:14 46.5 °F 36.5 °F 29.64 in West 1.0 mph 1.0 mph 68% 0.00 in 0 W/m2
00:20 46.3 °F 36.3 °F 29.65 in West 1.0 mph 1.0 mph 68% 0.00 in 0 W/m2
00:32 46.0 °F 36.4 °F 29.65 in WNW 1.0 mph 1.0 mph 69% 0.00 in 0 W/m2
00:38 45.9 °F 36.7 °F 29.66 in WNW 1.0 mph 2.0 mph 70% 0.00 in 0 W/m2
00:44 45.8 °F 36.6 °F 29.66 in SW 1.0 mph 2.0 mph 70% 0.00 in 0 W/m2
00:50 45.6 °F 36.4 °F 29.66 in WSW 1.0 mph 1.0 mph 70% 0.00 in 0 W/m2
00:56 45.3 °F 36.4 °F 29.66 in WSW 1.0 mph 2.0 mph 71% 0.00 in 0 W/m2
01:02 45.2 °F 36.4 °F 29.66 in WSW 1.0 mph 2.0 mph 71% 0.00 in 0 W/m2
01:08 45.1 °F 36.3 °F 29.66 in WSW 1.0 mph 2.0 mph 71% 0.00 in 0 W/m2
01:14 44.8 °F 36.3 °F 29.66 in Calm   3.0 mph 72% 0.00 in 0 W/m2
01:20 44.5 °F 36.0 °F 29.66 in West 1.0 mph 1.0 mph 72% 0.00 in 0 W/m2
01:26 44.4 °F 36.3 °F 29.66 in West 1.0 mph 1.0 mph 73% 0.00 in 0 W/m2
01:32 44.2 °F 36.1 °F 29.66 in West 1.0 mph 2.0 mph 73% 0.00 in 0 W/m2
01:38 44.1 °F 36.0 °F 29.66 in West 1.0 mph 2.0 mph 73% 0.00 in 0 W/m2
01:44 44.2 °F 36.1 °F 29.66 in WSW 1.0 mph 4.0 mph 73% 0.00 in 0 W/m2
01:50 44.1 °F 36.3 °F 29.66 in WSW 1.0 mph 2.0 mph 74% 0.00 in 0 W/m2
01:56 44.1 °F 36.3 °F 29.66 in WSW 2.0 mph 2.0 mph 74% 0.00 in 0 W/m2
02:02 44.1 °F 36.3 °F 29.66 in WSW 2.0 mph 2.0 mph 74% 0.00 in 0 W/m2
02:08 44.0 °F 36.2 °F 29.66 in West 1.0 mph 2.0 mph 74% 0.00 in 0 W/m2
02:14 43.8 °F 36.0 °F 29.66 in Calm   1.0 mph 74% 0.00 in 0 W/m2
02:20 43.6 °F 36.2 °F 29.67 in Calm     75% 0.00 in 0 W/m2
02:26 43.6 °F 36.2 °F 29.67 in Calm   1.0 mph 75% 0.00 in 0 W/m2
02:32 43.6 °F 36.2 °F 29.67 in Calm     75% 0.00 in 0 W/m2
02:38 43.5 °F 36.1 °F 29.67 in Calm     75% 0.00 in 0 W/m2
02:44 43.3 °F 36.2 °F 29.67 in Calm     76% 0.00 in 0 W/m2
02:50 43.3 °F 36.2 °F 29.67 in Calm     76% 0.00 in 0 W/m2
02:56 43.1 °F 36.0 °F 29.67 in Calm   2.0 mph 76% 0.00 in 0 W/m2
03:03 43.0 °F 36.0 °F 29.67 in Calm     76% 0.00 in 0 W/m2
03:08 43.0 °F 36.0 °F 29.67 in Calm     76% 0.00 in 0 W/m2
03:14 43.1 °F 36.4 °F 29.68 in WSW 1.0 mph 1.0 mph 77% 0.00 in 0 W/m2
03:20 43.1 °F 36.0 °F 29.68 in WSW 1.0 mph 1.0 mph 76% 0.00 in 0 W/m2
03:26 43.0 °F 36.3 °F 29.68 in Calm   3.0 mph 77% 0.00 in 0 W/m2
03:32 42.9 °F 36.2 °F 29.68 in Calm   1.0 mph 77% 0.00 in 0 W/m2
03:38 42.8 °F 36.1 °F 29.68 in Calm   2.0 mph 77% 0.00 in 0 W/m2
03:44 42.7 °F 36.0 °F 29.69 in Calm     77% 0.00 in 0 W/m2
03:50 42.4 °F 36.0 °F 29.69 in Calm     78% 0.00 in 0 W/m2
03:56 42.4 °F 36.0 °F 29.69 in Calm   1.0 mph 78% 0.00 in 0 W/m2
04:02 42.4 °F 36.0 °F 29.69 in Calm     78% 0.00 in 0 W/m2
04:08 42.3 °F 35.9 °F 29.69 in Calm     78% 0.00 in 0 W/m2
04:14 42.2 °F 35.8 °F 29.69 in Calm     78% 0.00 in 0 W/m2
04:20 42.0 °F 36.0 °F 29.70 in Calm   1.0 mph 79% 0.00 in 0 W/m2
04:26 42.0 °F 36.0 °F 29.70 in Calm   1.0 mph 79% 0.00 in 0 W/m2
04:32 41.8 °F 35.8 °F 29.70 in Calm     79% 0.00 in 0 W/m2
04:38 41.6 °F 35.6 °F 29.70 in Calm   2.0 mph 79% 0.00 in 0 W/m2
04:44 41.5 °F 35.8 °F 29.70 in Calm   1.0 mph 80% 0.00 in 0 W/m2
04:50 41.4 °F 35.7 °F 29.70 in Calm     80% 0.00 in 0 W/m2
04:56 41.2 °F 35.5 °F 29.70 in Calm     80% 0.00 in 0 W/m2
05:02 41.1 °F 35.7 °F 29.70 in Calm     81% 0.00 in 0 W/m2
05:08 41.2 °F 35.8 °F 29.70 in WSW 1.0 mph 1.0 mph 81% 0.00 in 0 W/m2
05:14 41.3 °F 35.6 °F 29.70 in WSW 1.0 mph 1.0 mph 80% 0.00 in 0 W/m2
05:20 41.3 °F 35.6 °F 29.70 in Calm     80% 0.00 in 0 W/m2
05:26 41.2 °F 35.5 °F 29.70 in Calm     80% 0.00 in 0 W/m2
05:32 41.2 °F 35.5 °F 29.70 in Calm   1.0 mph 80% 0.00 in 0 W/m2
05:38 41.3 °F 35.6 °F 29.71 in Calm   1.0 mph 80% 0.00 in 0 W/m2
05:44 41.3 °F 35.6 °F 29.71 in West 1.0 mph 3.0 mph 80% 0.00 in 0 W/m2
05:50 41.5 °F 35.8 °F 29.71 in WSW 1.0 mph 2.0 mph 80% 0.00 in 0 W/m2
05:56 41.6 °F 35.9 °F 29.72 in WSW 1.0 mph 2.0 mph 80% 0.00 in 0 W/m2
06:02 41.8 °F 36.1 °F 29.72 in West 1.0 mph 1.0 mph 80% 0.00 in 0 W/m2
06:08 42.1 °F 36.1 °F 29.72 in SW 2.0 mph 2.0 mph 79% 0.00 in 0 W/m2
06:14 42.2 °F 36.2 °F 29.71 in WSW 2.0 mph 3.0 mph 79% 0.00 in 0 W/m2
06:20 42.2 °F 35.8 °F 29.71 in West 2.0 mph 2.0 mph 78% 0.00 in 0 W/m2
06:26 42.4 °F 36.0 °F 29.71 in SW 2.0 mph 6.0 mph 78% 0.00 in 0 W/m2
06:32 42.6 °F 36.2 °F 29.72 in West 2.0 mph 2.0 mph 78% 0.00 in 0 W/m2
06:38 42.6 °F 36.2 °F 29.73 in WSW 2.0 mph 2.0 mph 78% 0.00 in 0 W/m2
06:44 42.6 °F 36.2 °F 29.73 in SW 1.0 mph 3.0 mph 78% 0.00 in 0 W/m2
06:50 42.6 °F 36.2 °F 29.73 in SW 2.0 mph 2.0 mph 78% 0.00 in 0 W/m2
06:56 42.6 °F 36.2 °F 29.73 in WNW 2.0 mph 5.0 mph 78% 0.00 in 0 W/m2
07:02 42.5 °F 35.8 °F 29.74 in WNW 2.0 mph 5.0 mph 77% 0.00 in 5 W/m2
07:08 42.6 °F 35.9 °F 29.74 in WNW 2.0 mph 5.0 mph 77% 0.00 in 9 W/m2
07:14 42.5 °F 35.8 °F 29.74 in WNW 2.0 mph 2.0 mph 77% 0.00 in 12 W/m2
07:20 42.4 °F 35.7 °F 29.75 in West 1.0 mph 3.0 mph 77% 0.00 in 18 W/m2
07:26 42.5 °F 35.8 °F 29.75 in NW 2.0 mph 5.0 mph 77% 0.00 in 21 W/m2
07:32 42.6 °F 35.9 °F 29.75 in WSW 2.0 mph 3.0 mph 77% 0.00 in 26 W/m2
07:38 42.6 °F 35.6 °F 29.76 in WSW 1.0 mph 7.0 mph 76% 0.00 in 33 W/m2
07:44 42.8 °F 35.8 °F 29.76 in West 2.0 mph 4.0 mph 76% 0.00 in 46 W/m2
07:50 43.0 °F 35.6 °F 29.76 in West 2.0 mph 2.0 mph 75% 0.00 in 63 W/m2
07:56 43.5 °F 35.8 °F 29.76 in WNW 3.0 mph 3.0 mph 74% 0.00 in 74 W/m2
08:02 43.9 °F 35.8 °F 29.76 in West 3.0 mph 3.0 mph 73% 0.00 in 116 W/m2
08:08 44.1 °F 36.0 °F 29.77 in West 3.0 mph 3.0 mph 73% 0.00 in 148 W/m2
08:14 44.2 °F 35.7 °F 29.77 in WSW 3.0 mph 3.0 mph 72% 0.00 in 156 W/m2
08:20 44.3 °F 35.8 °F 29.77 in West 2.0 mph 8.0 mph 72% 0.00 in 146 W/m2
08:26 44.2 °F 35.4 °F 29.77 in West 3.0 mph 8.0 mph 71% 0.00 in 109 W/m2
08:32 44.1 °F 35.6 °F 29.77 in NW 3.0 mph 5.0 mph 72% 0.00 in 105 W/m2
08:38 43.9 °F 35.5 °F 29.77 in WSW 3.0 mph 6.0 mph 72% 0.00 in 91 W/m2
08:44 43.8 °F 35.4 °F 29.78 in West 3.0 mph 4.0 mph 72% 0.00 in 128 W/m2
08:50 43.6 °F 35.2 °F 29.78 in WSW 3.0 mph 3.0 mph 72% 0.00 in 67 W/m2
08:56 43.5 °F 35.1 °F 29.78 in West 2.0 mph 3.0 mph 72% 0.00 in 58 W/m2
09:02 43.3 °F 34.9 °F 29.78 in WNW 2.0 mph 3.0 mph 72% 0.00 in 44 W/m2
09:08 43.8 °F 35.4 °F 29.79 in WNW 2.0 mph 4.0 mph 72% 0.00 in 366 W/m2
09:14 44.7 °F 35.5 °F 29.79 in WNW 3.0 mph 8.0 mph 70% 0.00 in 376 W/m2
09:20 45.6 °F 35.6 °F 29.79 in WNW 3.0 mph 3.0 mph 68% 0.00 in 390 W/m2
09:26 45.7 °F 35.7 °F 29.79 in West 3.0 mph 5.0 mph 68% 0.00 in 404 W/m2
09:32 45.8 °F 35.5 °F 29.79 in WNW 3.0 mph 8.0 mph 67% 0.00 in 420 W/m2
09:38 46.0 °F 35.3 °F 29.79 in WNW 4.0 mph 9.0 mph 66% 0.00 in 432 W/m2
09:44 46.6 °F 35.5 °F 29.80 in WNW 4.0 mph 4.0 mph 65% 0.00 in 446 W/m2
09:50 46.5 °F 35.4 °F 29.80 in WSW 4.0 mph 4.0 mph 65% 0.00 in 457 W/m2
09:56 47.1 °F 35.5 °F 29.80 in WNW 4.0 mph 6.0 mph 64% 0.00 in 471 W/m2
10:02 47.8 °F 35.4 °F 29.81 in NW 4.0 mph 5.0 mph 62% 0.00 in 485 W/m2
10:08 47.6 °F 35.2 °F 29.81 in WNW 4.0 mph 7.0 mph 62% 0.00 in 497 W/m2
10:14 47.7 °F 35.3 °F 29.81 in West 5.0 mph 7.0 mph 62% 0.00 in 506 W/m2
10:20 47.7 °F 35.3 °F 29.81 in WNW 4.0 mph 4.0 mph 62% 0.00 in 517 W/m2
10:26 48.1 °F 35.3 °F 29.81 in West 4.0 mph 5.0 mph 61% 0.00 in 529 W/m2
10:32 48.9 °F 35.6 °F 29.81 in WNW 3.0 mph 4.0 mph 60% 0.00 in 538 W/m2
10:38 49.1 °F 34.9 °F 29.81 in WNW 3.0 mph 4.0 mph 58% 0.00 in 548 W/m2
10:44 48.8 °F 34.7 °F 29.81 in West 4.0 mph 4.0 mph 58% 0.00 in 559 W/m2
10:50 48.4 °F 34.7 °F 29.81 in NW 5.0 mph 5.0 mph 59% 0.00 in 566 W/m2
10:56 48.4 °F 34.7 °F 29.81 in West 6.0 mph 10.0 mph 59% 0.00 in 575 W/m2
11:02 48.7 °F 34.6 °F 29.82 in WNW 6.0 mph 8.0 mph 58% 0.00 in 584 W/m2
11:08 48.6 °F 34.5 °F 29.82 in WNW 5.0 mph 8.0 mph 58% 0.00 in 589 W/m2
11:14 49.0 °F 34.9 °F 29.82 in NW 4.0 mph 7.0 mph 58% 0.00 in 596 W/m2
11:20 48.9 °F 34.3 °F 29.82 in WNW 4.0 mph 6.0 mph 57% 0.00 in 603 W/m2
11:26 48.5 °F 34.4 °F 29.82 in West 5.0 mph 7.0 mph 58% 0.00 in 606 W/m2
11:32 48.6 °F 34.5 °F 29.82 in WNW 5.0 mph 9.0 mph 58% 0.00 in 610 W/m2
11:38 49.1 °F 34.5 °F 29.82 in WNW 4.0 mph 9.0 mph 57% 0.00 in 613 W/m2
11:40 49.3 °F 34.7 °F 29.82 in West 4.0 mph 4.0 mph 57% 0.00 in 615 W/m2
11:46 49.0 °F 34.4 °F 29.81 in WNW 4.0 mph 6.0 mph 57% 0.00 in 619 W/m2
11:52 49.9 °F 34.8 °F 29.82 in WNW 4.0 mph 5.0 mph 56% 0.00 in 622 W/m2
11:58 49.7 °F 34.6 °F 29.82 in WNW 4.0 mph 6.0 mph 56% 0.00 in 624 W/m2
12:04 49.9 °F 34.4 °F 29.81 in WNW 4.0 mph 7.0 mph 55% 0.00 in 624 W/m2
12:10 49.6 °F 34.1 °F 29.81 in WNW 5.0 mph 5.0 mph 55% 0.00 in 626 W/m2
12:16 49.9 °F 34.4 °F 29.81 in WNW 5.0 mph 7.0 mph 55% 0.00 in 626 W/m2
12:22 49.6 °F 34.1 °F 29.81 in WNW 5.0 mph 6.0 mph 55% 0.00 in 626 W/m2
12:28 50.0 °F 34.5 °F 29.81 in WNW 5.0 mph 7.0 mph 55% 0.00 in 626 W/m2
12:34 50.1 °F 34.1 °F 29.81 in WNW 5.0 mph 10.0 mph 54% 0.00 in 626 W/m2
12:40 51.0 °F 34.5 °F 29.81 in WNW 4.0 mph 6.0 mph 53% 0.00 in 624 W/m2
12:46 50.8 °F 34.3 °F 29.81 in NNE 4.0 mph 8.0 mph 53% 0.00 in 622 W/m2
12:52 51.0 °F 34.0 °F 29.81 in WNW 4.0 mph 5.0 mph 52% 0.00 in 617 W/m2
12:58 51.5 °F 34.4 °F 29.81 in NW 4.0 mph 5.0 mph 52% 0.00 in 615 W/m2
13:04 51.4 °F 34.3 °F 29.81 in WNW 4.0 mph 5.0 mph 52% 0.00 in 612 W/m2
13:10 51.4 °F 33.9 °F 29.81 in WNW 4.0 mph 7.0 mph 51% 0.00 in 606 W/m2
13:16 51.7 °F 33.6 °F 29.81 in WNW 4.0 mph 10.0 mph 50% 0.00 in 601 W/m2
13:22 51.9 °F 34.3 °F 29.81 in WNW 4.0 mph 6.0 mph 51% 0.00 in 596 W/m2
13:28 51.8 °F 33.7 °F 29.81 in NW 5.0 mph 7.0 mph 50% 0.00 in 589 W/m2
13:36 52.3 °F 34.2 °F 29.81 in WNW 4.0 mph 7.0 mph 50% 0.00 in 580 W/m2
13:42 52.5 °F 33.9 °F 29.81 in WNW 4.0 mph 8.0 mph 49% 0.00 in 573 W/m2
13:48 52.5 °F 34.4 °F 29.81 in WNW 5.0 mph 8.0 mph 50% 0.00 in 568 W/m2
13:54 52.7 °F 34.1 °F 29.81 in WNW 5.0 mph 10.0 mph 49% 0.00 in 557 W/m2
14:00 53.0 °F 33.8 °F 29.81 in WNW 5.0 mph 6.0 mph 48% 0.00 in 548 W/m2
14:12 53.2 °F 34.5 °F 29.81 in West 4.0 mph 8.0 mph 49% 0.00 in 527 W/m2
14:18 52.9 °F 33.7 °F 29.81 in West 6.0 mph 9.0 mph 48% 0.00 in 517 W/m2
14:24 52.9 °F 33.7 °F 29.81 in WNW 7.0 mph 7.0 mph 48% 0.00 in 508 W/m2
14:30 52.9 °F 33.7 °F 29.81 in West 6.0 mph 6.0 mph 48% 0.00 in 496 W/m2
14:36 53.2 °F 34.0 °F 29.81 in NNW 5.0 mph 6.0 mph 48% 0.00 in 485 W/m2
14:42 53.1 °F 33.9 °F 29.82 in NW 5.0 mph 6.0 mph 48% 0.00 in 473 W/m2
14:48 52.6 °F 34.0 °F 29.82 in WNW 5.0 mph 9.0 mph 49% 0.00 in 459 W/m2
14:54 52.0 °F 33.4 °F 29.82 in NNW 6.0 mph 7.0 mph 49% 0.00 in 448 W/m2
15:00 51.9 °F 33.8 °F 29.83 in WSW 6.0 mph 6.0 mph 50% 0.00 in 434 W/m2
15:06 51.2 °F 33.2 °F 29.83 in NW 6.0 mph 13.0 mph 50% 0.00 in 420 W/m2
15:12 51.1 °F 33.6 °F 29.83 in WNW 6.0 mph 7.0 mph 51% 0.00 in 406 W/m2
15:18 51.1 °F 33.1 °F 29.84 in NNW 6.0 mph 7.0 mph 50% 0.00 in 392 W/m2
15:24 51.2 °F 32.7 °F 29.84 in WSW 6.0 mph 9.0 mph 49% 0.00 in 380 W/m2
15:30 51.2 °F 33.2 °F 29.85 in WNW 6.0 mph 8.0 mph 50% 0.00 in 364 W/m2
15:36 51.2 °F 32.7 °F 29.85 in NW 6.0 mph 8.0 mph 49% 0.00 in 348 W/m2
15:42 51.1 °F 33.1 °F 29.85 in NNW 6.0 mph 7.0 mph 50% 0.00 in 332 W/m2
15:48 51.2 °F 33.2 °F 29.85 in WNW 6.0 mph 7.0 mph 50% 0.00 in 316 W/m2
15:54 51.3 °F 33.3 °F 29.85 in WNW 4.0 mph 5.0 mph 50% 0.00 in 302 W/m2
16:00 51.0 °F 33.0 °F 29.85 in NNW 4.0 mph 5.0 mph 50% 0.00 in 287 W/m2
16:06 50.5 °F 33.0 °F 29.85 in NW 4.0 mph 6.0 mph 51% 0.00 in 269 W/m2
16:12 50.5 °F 33.0 °F 29.85 in NW 4.0 mph 5.0 mph 51% 0.00 in 251 W/m2
16:18 50.3 °F 32.8 °F 29.85 in NW 5.0 mph 7.0 mph 51% 0.00 in 234 W/m2
16:24 50.0 °F 33.1 °F 29.85 in WNW 5.0 mph 5.0 mph 52% 0.00 in 79 W/m2
16:30 49.9 °F 33.0 °F 29.85 in West 6.0 mph 8.0 mph 52% 0.00 in 25 W/m2
16:36 49.7 °F 33.2 °F 29.86 in WNW 6.0 mph 8.0 mph 53% 0.00 in 25 W/m2
16:42 49.5 °F 33.1 °F 29.86 in NW 5.0 mph 5.0 mph 53% 0.00 in 23 W/m2
16:48 49.2 °F 33.3 °F 29.87 in West 4.0 mph 7.0 mph 54% 0.00 in 21 W/m2
16:54 49.0 °F 33.5 °F 29.87 in WNW 4.0 mph 5.0 mph 55% 0.00 in 21 W/m2
17:00 48.8 °F 33.3 °F 29.87 in WNW 4.0 mph 4.0 mph 55% 0.00 in 19 W/m2
17:06 48.5 °F 33.5 °F 29.88 in WNW 4.0 mph 4.0 mph 56% 0.00 in 18 W/m2
17:12 48.2 °F 33.2 °F 29.88 in West 4.0 mph 4.0 mph 56% 0.00 in 16 W/m2
17:18 47.9 °F 33.4 °F 29.88 in NW 4.0 mph 4.0 mph 57% 0.00 in 14 W/m2
17:24 47.6 °F 33.1 °F 29.89 in NW 5.0 mph 5.0 mph 57% 0.00 in 12 W/m2
17:30 47.3 °F 33.3 °F 29.89 in NW 5.0 mph 5.0 mph 58% 0.00 in 9 W/m2
17:36 47.1 °F 33.1 °F 29.89 in WNW 5.0 mph 8.0 mph 58% 0.00 in 7 W/m2
17:42 46.8 °F 33.2 °F 29.90 in NW 4.0 mph 5.0 mph 59% 0.00 in 0 W/m2
17:48 46.4 °F 33.3 °F 29.90 in WNW 3.0 mph 5.0 mph 60% 0.00 in 0 W/m2
17:54 46.0 °F 32.9 °F 29.90 in NW 2.0 mph 5.0 mph 60% 0.00 in 0 W/m2
18:00 45.6 °F 32.9 °F 29.90 in WNW 2.0 mph 2.0 mph 61% 0.00 in 0 W/m2
18:06 45.3 °F 33.0 °F 29.91 in West 1.0 mph 3.0 mph 62% 0.00 in 0 W/m2
18:12 45.2 °F 32.9 °F 29.92 in WNW 2.0 mph 5.0 mph 62% 0.00 in 0 W/m2
18:18 45.0 °F 33.2 °F 29.92 in WNW 2.0 mph 5.0 mph 63% 0.00 in 0 W/m2
18:24 44.7 °F 32.9 °F 29.92 in WNW 2.0 mph 2.0 mph 63% 0.00 in 0 W/m2
18:30 44.3 °F 32.9 °F 29.92 in WNW 1.0 mph 1.0 mph 64% 0.00 in 0 W/m2
18:36 44.0 °F 32.6 °F 29.93 in WNW 1.0 mph 1.0 mph 64% 0.00 in 0 W/m2
18:42 43.7 °F 32.7 °F 29.93 in WNW 1.0 mph 1.0 mph 65% 0.00 in 0 W/m2
18:48 43.5 °F 32.5 °F 29.93 in WNW 1.0 mph 2.0 mph 65% 0.00 in 0 W/m2
18:54 43.4 °F 32.4 °F 29.93 in NW 1.0 mph 3.0 mph 65% 0.00 in 0 W/m2
19:00 43.3 °F 32.3 °F 29.94 in NW 1.0 mph 2.0 mph 65% 0.00 in 0 W/m2
19:06 43.1 °F 32.1 °F 29.94 in WNW 1.0 mph 3.0 mph 65% 0.00 in 0 W/m2
19:12 42.9 °F 31.9 °F 29.94 in Calm   3.0 mph 65% 0.00 in 0 W/m2
19:18 42.8 °F 32.2 °F 29.95 in WNW 1.0 mph 5.0 mph 66% 0.00 in 0 W/m2
19:24 42.7 °F 32.1 °F 29.95 in WNW 1.0 mph 1.0 mph 66% 0.00 in 0 W/m2
19:30 42.5 °F 31.9 °F 29.95 in Calm     66% 0.00 in 0 W/m2
19:36 42.1 °F 31.9 °F 29.95 in Calm   1.0 mph 67% 0.00 in 0 W/m2
19:42 42.0 °F 31.8 °F 29.96 in WNW 1.0 mph 1.0 mph 67% 0.00 in 0 W/m2
19:48 41.9 °F 32.1 °F 29.96 in WNW 1.0 mph 2.0 mph 68% 0.00 in 0 W/m2
19:54 42.0 °F 31.8 °F 29.96 in WNW 1.0 mph 2.0 mph 67% 0.00 in 0 W/m2
20:00 42.1 °F 31.9 °F 29.96 in WNW 1.0 mph 1.0 mph 67% 0.00 in 0 W/m2
20:06 42.0 °F 32.2 °F 29.97 in West 1.0 mph 1.0 mph 68% 0.00 in 0 W/m2
20:12 41.8 °F 32.0 °F 29.97 in WSW 1.0 mph 3.0 mph 68% 0.00 in 0 W/m2
20:18 41.6 °F 31.8 °F 29.97 in WSW 1.0 mph 3.0 mph 68% 0.00 in 0 W/m2
20:24 41.4 °F 32.0 °F 29.97 in WSW 1.0 mph 3.0 mph 69% 0.00 in 0 W/m2
20:30 41.3 °F 31.9 °F 29.98 in Calm     69% 0.00 in 0 W/m2
20:36 41.1 °F 32.1 °F 29.98 in WSW 1.0 mph 2.0 mph 70% 0.00 in 0 W/m2
20:42 41.0 °F 32.0 °F 29.98 in NW 1.0 mph 2.0 mph 70% 0.00 in 0 W/m2
20:48 40.9 °F 31.9 °F 29.99 in WNW 2.0 mph 3.0 mph 70% 0.00 in 0 W/m2
20:54 40.9 °F 31.9 °F 29.99 in WNW 1.0 mph 3.0 mph 70% 0.00 in 0 W/m2
21:00 40.8 °F 32.1 °F 30.00 in NW 2.0 mph 3.0 mph 71% 0.00 in 0 W/m2
21:06 40.8 °F 32.1 °F 30.00 in West 2.0 mph 3.0 mph 71% 0.00 in 0 W/m2
21:12 40.6 °F 31.9 °F 30.00 in WNW 2.0 mph 5.0 mph 71% 0.00 in 0 W/m2
21:18 40.6 °F 31.9 °F 30.00 in West 2.0 mph 5.0 mph 71% 0.00 in 0 W/m2
21:24 40.5 °F 31.8 °F 30.00 in WNW 2.0 mph 3.0 mph 71% 0.00 in 0 W/m2
21:30 40.3 °F 32.0 °F 30.00 in NW 2.0 mph 2.0 mph 72% 0.00 in 0 W/m2
21:36 40.0 °F 31.7 °F 30.01 in NW 1.0 mph 2.0 mph 72% 0.00 in 0 W/m2
21:42 39.7 °F 31.4 °F 30.02 in North 2.0 mph 3.0 mph 72% 0.00 in 0 W/m2
21:48 39.2 °F 31.3 °F 30.01 in North 1.0 mph 3.0 mph 73% 0.00 in 0 W/m2
21:54 38.9 °F 31.3 °F 30.01 in Calm   1.0 mph 74% 0.00 in 0 W/m2
22:00 38.7 °F 31.1 °F 30.02 in Calm     74% 0.00 in 0 W/m2
22:06 38.4 °F 30.8 °F 30.02 in Calm     74% 0.00 in 0 W/m2
22:12 38.1 °F 30.9 °F 30.02 in Calm     75% 0.00 in 0 W/m2
22:18 37.9 °F 30.7 °F 30.02 in Calm     75% 0.00 in 0 W/m2
22:24 37.6 °F 30.7 °F 30.02 in Calm     76% 0.00 in 0 W/m2
22:30 37.4 °F 30.5 °F 30.02 in Calm     76% 0.00 in 0 W/m2
22:36 37.3 °F 30.7 °F 30.02 in Calm     77% 0.00 in 0 W/m2
22:42 37.1 °F 30.6 °F 30.02 in Calm     77% 0.00 in 0 W/m2
22:48 36.9 °F 30.7 °F 30.03 in Calm     78% 0.00 in 0 W/m2
22:54 37.1 °F 30.9 °F 30.03 in Calm   1.0 mph 78% 0.00 in 0 W/m2
23:00 37.3 °F 30.7 °F 30.03 in North 1.0 mph 1.0 mph 77% 0.00 in 0 W/m2
23:06 37.3 °F 30.7 °F 30.03 in WNW 1.0 mph 2.0 mph 77% 0.00 in 0 W/m2
23:12 37.4 °F 30.8 °F 30.03 in WNW 1.0 mph 1.0 mph 77% 0.00 in 0 W/m2
23:18 37.4 °F 30.8 °F 30.03 in WNW 1.0 mph 2.0 mph 77% 0.00 in 0 W/m2
23:24 37.4 °F 30.8 °F 30.03 in WNW 1.0 mph 3.0 mph 77% 0.00 in 0 W/m2
23:30 37.2 °F 30.7 °F 30.03 in Calm     77% 0.00 in 0 W/m2
23:36 37.0 °F 30.5 °F 30.03 in WNW 1.0 mph 2.0 mph 77% 0.00 in 0 W/m2
23:42 36.8 °F 30.3 °F 30.04 in WNW 1.0 mph 1.0 mph 77% 0.00 in 0 W/m2
23:48 36.8 °F 30.6 °F 30.04 in WNW 1.0 mph 1.0 mph 78% 0.00 in 0 W/m2
23:54 36.7 °F 30.5 °F 30.04 in WNW 1.0 mph 1.0 mph 78% 0.00 in 0 W/m2
Country Meadow, Clay, NY, USA
Compliments of Weather Underground - 2 mb